Theta_e
308 318 321 320 320 321 321 322 321 323 321 316 315 318 325 331 333 333 330 331 334 332 338 338 340 337 335 334 330 330 330 333 336 336 336 336 335 335 334 333 329 327 327 327 326 325 325 324 325
314 320 321 318 316 314 310 317 322 319 316 312 313 320 325 339 332 329 328 334 333 333 337 336 337 338 337 334 329 331 332 334 336 336 336 335 335 335 333 331 327 325 326 326 325 325 326 325 324
317 319 320 321 316 313 311 317 312 312 310 313 317 325 335 320 324 326 331 332 333 333 336 336 337 337 337 334 329 329 332 333 334 333 335 335 334 331 329 328 326 325 326 326 325 325 325 324 322
317 316 314 320 320 320 319 311 309 310 312 312 311 317 321 312 312 312 329 334 335 335 336 336 336 335 336 334 331 327 330 333 332 333 334 333 331 329 328 326 325 325 326 325 325 325 324 323 321
313 311 316 318 319 319 312 309 308 310 311 312 310 313 333 312 310 311 330 334 335 336 337 336 336 334 335 334 331 329 329 333 332 333 333 331 330 327 326 324 325 325 325 324 324 324 323 322 318
310 307 308 311 312 311 309 308 308 309 309 310 311 310 323 311 310 312 329 332 335 335 336 336 336 334 334 333 331 329 328 330 332 331 332 330 328 326 325 324 324 324 324 324 324 323 323 318 316
310 306 308 309 310 311 311 308 309 309 309 310 308 318 313 311 309 309 313 323 334 334 335 336 335 335 333 333 331 329 329 330 330 331 330 328 327 325 325 324 324 324 324 324 324 323 319 316 315
305 307 310 307 309 310 309 309 308 310 310 307 309 313 313 310 308 308 310 312 316 327 331 334 334 333 333 332 331 330 326 329 331 331 331 329 326 324 324 324 324 323 323 323 323 321 316 315 315
305 309 309 310 311 311 310 311 309 307 309 308 309 309 309 307 307 307 308 309 311 313 317 326 332 333 332 332 330 331 329 327 330 331 331 330 326 324 323 324 323 322 323 323 322 319 315 314 314
307 306 309 309 311 312 311 310 309 310 310 310 309 307 306 305 305 305 306 307 309 309 310 313 322 330 333 331 330 329 330 329 330 332 332 331 328 324 324 323 323 322 322 322 320 319 317 316 314
308 307 311 311 312 311 311 310 309 310 311 309 308 307 305 304 304 305 305 306 307 309 309 310 311 318 327 332 331 329 330 328 329 330 331 332 328 323 322 322 322 320 320 321 321 319 317 315 314
312 311 311 312 311 311 311 309 310 309 309 306 305 305 304 304 304 304 305 305 307 308 308 309 310 311 317 326 332 330 329 329 328 330 331 331 328 324 323 323 322 320 320 321 322 318 316 314 313
311 311 311 310 311 310 309 310 309 309 306 304 304 304 304 304 304 304 305 305 306 307 308 309 309 310 311 317 327 331 330 329 328 331 332 331 328 324 322 321 322 320 320 320 321 317 316 315 314
311 311 311 310 310 310 310 311 309 309 304 305 304 304 304 304 304 304 305 306 307 308 308 308 309 310 310 312 319 328 331 330 328 322 327 331 327 322 321 321 321 321 320 319 319 317 318 317 317
310 311 310 310 310 312 309 311 312 306 304 304 304 305 305 304 305 305 306 307 308 309 307 308 308 309 309 311 314 322 330 330 329 328 324 329 327 322 320 320 320 319 319 319 319 320 320 320 321
308 307 311 309 310 310 308 311 310 305 304 305 305 306 306 306 305 306 306 306 306 307 307 307 308 309 309 311 313 316 328 330 329 326 323 328 327 323 321 320 318 318 320 321 321 321 321 321 322
307 309 311 310 310 311 310 311 307 304 304 305 305 305 305 305 305 305 304 304 304 305 305 306 307 308 309 309 312 317 324 329 329 327 326 326 327 323 322 320 318 317 321 321 322 321 321 321 322
308 310 311 311 309 311 311 312 308 304 305 305 305 305 305 305 305 304 303 303 303 304 304 304 305 306 307 308 311 316 323 328 329 327 325 326 326 324 323 321 318 318 322 323 322 322 321 320 321
309 311 310 308 308 311 312 312 309 305 305 305 305 305 305 305 303 303 303 303 302 303 303 303 303 305 306 308 313 318 325 328 328 328 328 327 326 325 324 322 319 320 323 322 322 322 320 320 321
311 308 307 307 307 312 311 310 308 306 305 306 306 305 305 304 304 303 301 301 301 302 302 302 303 304 306 308 312 319 324 327 327 327 326 326 326 325 325 322 320 321 323 322 322 321 320 320 321
307 306 302 309 308 311 307 305 306 305 303 304 303 303 302 302 302 302 301 300 300 301 301 302 303 304 307 309 312 316 324 325 325 325 326 326 326 325 325 323 321 321 322 322 321 321 321 321 321
306 306 307 310 309 310 305 307 297 302 303 304 303 301 300 300 300 300 299 299 299 299 301 302 303 303 307 310 312 316 324 325 325 326 326 325 325 325 325 324 324 321 322 321 321 321 321 321 322
305 306 309 308 309 312 304 308 302 301 304 304 303 301 299 298 298 299 299 299 299 299 300 302 302 303 306 311 315 317 323 324 324 325 323 324 324 324 324 323 323 322 322 322 322 321 320 320 318
305 308 304 306 310 306 299 303 303 301 303 303 303 299 297 297 297 297 298 298 298 300 301 301 301 301 304 308 313 318 322 317 317 316 314 314 315 319 320 322 321 319 317 316 315 315 315 314 313
307 304 302 302 301 307 304 305 305 301 302 303 303 298 296 295 296 296 297 297 296 297 298 299 300 301 301 305 308 309 310 311 311 312 312 312 311 312 312 313 313 313 313 313 312 312 311 311 311
308 304 303 302 303 304 305 308 308 301 302 303 299 297 296 295 294 295 295 295 295 296 298 299 300 300 301 302 303 305 307 308 309 309 309 309 310 311 311 311 311 311 310 310 310 310 311 312 312
307 307 304 306 300 306 304 304 303 303 301 299 297 296 296 295 294 293 293 294 294 295 296 298 299 300 302 301 303 304 305 305 306 306 307 308 307 308 308 308 309 309 310 310 311 311 311 311 310
306 304 307 303 300 302 301 306 305 306 304 299 296 295 295 296 294 293 293 293 294 295 297 298 299 298 299 301 301 303 304 306 306 307 307 308 307 308 309 309 309 310 310 310 309 308 307 307 305
308 308 306 304 306 305 306 303 301 303 303 302 298 294 294 295 294 293 292 293 293 295 296 297 298 298 298 298 297 300 301 302 303 304 305 305 306 307 306 305 306 305 304 304 304 302 301 300 298
304 305 305 304 303 305 307 305 302 301 301 300 298 294 294 294 293 292 292 293 293 293 295 295 297 298 297 297 297 298 298 299 299 298 298 299 299 299 299 299 299 298 298 298 298 297 297 296 296
Wind_Speed
3 1 1 5 3 3 2 3 2 2 4 3 3 4 2 4 3 2 21 6 14 7 25 25 21 21 19 19 18 17 15 17 16 16 16 17 17 16 15 14 13 12 10 11 11 11 11 11 11
1 2 3 2 4 2 3 3 2 3 5 12 6 1 1 3 5 12 10 29 15 7 21 22 21 21 20 18 17 17 17 17 18 17 17 16 16 15 13 12 13 11 10 11 10 11 10 10 10
4 2 3 3 3 3 2 1 5 7 8 6 4 6 4 8 10 12 21 20 7 9 20 20 19 20 21 18 17 17 17 17 17 16 15 15 14 13 13 12 13 11 10 11 10 9 9 8 8
1 4 4 3 3 2 0 4 5 8 3 5 4 5 6 18 12 20 25 15 5 9 20 20 20 20 19 19 18 17 18 17 16 16 15 15 15 14 13 12 12 13 11 10 9 8 7 6 6
5 3 4 3 2 1 2 3 5 5 2 5 8 6 4 8 24 28 23 16 10 8 18 20 20 19 20 19 18 18 19 20 19 18 17 17 16 16 16 14 12 12 11 10 8 7 6 6 5
4 3 4 1 2 1 1 3 4 5 5 5 7 7 3 20 39 35 23 18 13 10 14 18 20 20 20 19 19 19 20 21 21 21 19 17 17 17 17 15 14 13 11 10 8 6 5 6 5
5 3 3 3 1 1 3 8 3 4 5 5 7 3 7 21 35 32 23 16 14 9 11 17 20 20 20 21 21 22 22 22 22 20 19 18 18 17 18 17 15 13 13 11 9 7 6 5 5
4 4 3 1 1 1 4 6 2 4 2 4 6 5 5 19 32 31 24 20 16 13 10 15 21 22 22 23 23 23 23 23 22 21 20 19 19 19 18 17 17 14 15 13 10 9 7 6 5
2 4 2 3 2 2 3 4 4 3 2 3 4 4 9 22 28 32 29 29 26 19 16 15 16 24 26 24 25 25 25 23 22 22 24 22 20 21 20 20 18 16 14 14 12 10 8 7 7
4 3 5 2 3 2 3 1 4 4 6 5 5 10 15 18 20 21 23 24 24 28 25 19 16 16 26 28 27 28 27 26 24 24 26 28 22 23 22 20 19 17 14 14 13 11 9 9 8
2 3 3 2 2 2 1 2 2 2 3 2 10 16 18 18 18 17 20 19 23 24 26 23 21 18 17 25 31 29 29 29 26 25 28 29 26 22 22 21 20 18 15 14 14 13 12 10 9
5 2 1 1 2 2 3 2 3 4 1 7 7 10 10 13 16 18 20 21 25 28 27 27 25 22 20 20 26 34 34 32 30 28 30 29 25 24 24 23 23 20 19 17 16 14 12 11 10
4 2 1 1 2 3 2 2 3 2 4 7 7 7 8 10 14 16 19 21 21 23 31 33 30 26 23 21 21 28 31 34 34 27 30 31 30 30 25 23 22 20 19 18 17 15 12 11 11
3 2 2 3 3 2 2 1 2 2 7 8 7 8 7 11 15 15 20 20 22 23 25 30 30 28 26 23 24 24 27 31 36 31 34 33 31 28 26 24 23 21 19 18 17 15 13 13 11
3 3 2 2 4 1 0 2 3 4 7 8 10 10 11 13 17 17 19 23 21 20 27 26 27 26 25 25 23 26 25 29 30 32 31 35 36 30 27 25 23 22 19 17 16 14 13 12 10
4 4 2 2 5 2 2 2 2 6 7 11 11 12 13 13 15 19 18 23 22 21 23 27 28 26 24 25 26 23 24 31 35 39 38 41 39 34 31 27 25 22 20 18 17 15 14 12 13
5 2 2 6 2 3 4 3 1 5 6 9 10 12 12 13 16 20 24 24 24 23 23 26 28 28 26 25 24 22 24 30 34 36 37 39 40 36 31 29 25 22 21 20 18 17 15 15 15
2 2 1 3 2 2 3 4 1 4 5 6 9 9 11 14 15 21 24 25 27 30 25 21 24 27 27 26 25 22 24 27 31 31 34 38 43 34 30 31 25 23 22 22 20 19 17 16 16
5 3 3 3 2 3 3 3 2 3 4 6 8 11 12 13 19 20 21 26 26 24 26 25 25 27 27 24 19 18 23 23 26 30 34 36 36 30 32 33 26 23 22 22 21 19 18 17 15
2 2 3 4 3 2 3 6 4 1 3 4 6 6 10 13 14 20 26 27 26 26 28 24 26 27 24 24 20 11 15 22 26 26 26 34 30 32 33 33 26 26 24 23 22 20 17 15 14
3 3 3 3 4 1 6 3 2 3 4 5 4 5 6 9 14 15 21 25 29 32 31 28 30 33 26 19 17 16 11 14 18 23 24 32 33 37 36 31 26 27 24 23 23 22 20 15 12
1 4 3 2 3 2 4 4 5 3 7 4 5 6 7 10 11 12 21 25 29 32 37 40 41 40 28 12 13 15 12 11 12 16 23 22 32 32 28 30 26 27 21 21 21 19 18 15 8
2 4 3 0 1 3 4 1 6 2 5 5 5 6 6 7 9 12 18 24 26 32 35 39 40 36 30 11 5 13 11 8 10 14 15 15 20 23 28 23 20 19 16 15 14 11 9 13 13
3 3 3 3 1 1 3 3 5 4 5 3 3 5 6 7 8 13 19 24 26 35 40 41 39 36 32 22 23 13 15 20 24 25 28 28 27 25 22 19 13 15 18 18 23 25 26 27 24
2 3 3 4 3 3 3 1 8 5 6 5 4 4 5 6 7 8 13 19 25 29 32 34 40 39 36 31 34 32 29 33 29 26 23 26 31 40 34 39 34 37 33 33 28 29 27 25 22
1 3 4 4 2 4 2 5 5 5 3 4 3 2 2 6 5 7 11 16 20 25 27 31 34 38 40 34 36 36 31 34 35 32 33 30 33 42 41 39 39 35 30 32 26 27 21 17 16
2 2 2 5 1 2 3 6 5 2 4 4 5 3 3 4 5 6 12 16 19 20 20 23 26 31 35 36 38 41 41 38 34 34 34 39 34 41 42 41 34 31 27 23 16 17 16 15 15
2 4 3 3 1 4 4 5 5 6 10 8 7 6 5 2 4 5 10 15 17 17 18 19 20 22 24 29 33 35 36 37 37 38 38 38 36 33 30 27 23 22 21 19 19 19 18 17 16
2 2 3 2 3 3 3 5 6 6 9 12 9 8 6 5 3 2 7 10 13 15 16 17 18 20 22 23 25 30 31 32 33 34 31 29 30 28 28 26 25 25 23 21 21 20 19 19 17
2 5 5 4 4 2 1 7 1 6 6 8 8 8 6 5 4 1 4 7 11 13 15 15 16 18 19 21 25 27 28 29 29 29 28 28 28 27 28 27 27 26 24 22 21 21 20 20 19
Wind_Direction
319 278 35 40 68 63 230 243 296 330 332 243 289 221 310 39 13 334 339 0 348 225 183 182 181 181 181 178 177 173 174 165 167 168 169 165 163 156 152 147 150 145 147 151 148 150 146 146 146
35 129 67 88 96 102 264 313 349 298 305 307 298 273 47 90 35 313 348 332 297 222 190 189 191 185 184 183 180 173 173 170 168 171 170 163 156 152 152 154 153 152 159 156 153 152 151 155 152
96 80 85 91 112 189 192 48 291 297 306 340 341 43 38 341 334 341 326 333 293 205 194 194 199 196 189 188 186 180 180 179 172 169 162 160 158 159 160 164 160 161 162 162 155 155 156 158 157
119 37 42 90 195 244 154 344 316 309 317 29 332 74 93 60 354 335 339 333 279 208 196 198 204 203 201 194 189 186 185 180 175 182 172 169 167 165 165 167 168 173 173 170 164 161 163 166 170
49 57 75 86 259 314 41 344 299 334 337 340 346 355 96 32 359 360 360 343 313 247 206 202 208 209 207 205 199 190 192 189 189 194 187 179 178 174 169 167 175 179 178 175 174 173 172 176 183
50 88 69 175 268 6 342 342 303 5 335 344 22 331 102 6 7 359 3 351 330 288 232 217 214 213 215 213 208 203 199 199 200 198 194 191 186 181 177 173 180 187 186 186 180 190 190 190 187
104 84 131 152 240 132 312 333 37 332 321 9 323 353 307 354 350 354 3 6 354 312 264 237 229 223 221 216 214 212 211 210 209 206 200 194 190 188 190 177 185 189 194 193 188 194 207 209 201
99 89 106 105 167 219 340 340 347 37 312 318 358 20 333 328 340 347 354 2 8 354 331 261 245 235 229 224 222 219 219 218 215 211 204 200 193 192 191 188 186 192 199 203 198 204 206 218 227
119 69 142 161 155 290 344 8 323 316 349 57 27 42 311 325 341 348 352 353 351 353 346 326 284 249 237 235 230 225 225 223 219 214 212 207 199 192 193 198 196 196 202 213 208 208 215 217 229
68 98 183 135 143 234 293 6 314 5 13 350 330 331 337 341 348 349 347 339 340 337 334 332 311 306 258 241 239 232 228 225 222 216 214 208 205 200 197 200 203 202 209 220 219 213 222 231 233
41 121 148 186 179 194 307 68 7 9 27 335 314 325 340 344 347 344 337 330 324 324 324 324 319 306 291 267 244 240 235 227 224 221 220 212 202 203 200 197 202 206 215 219 227 227 227 235 242
89 63 99 108 8 49 8 311 101 59 320 307 306 310 324 339 338 334 331 327 328 329 321 318 316 309 292 285 267 249 240 231 227 220 218 211 202 208 207 207 212 216 215 226 234 236 242 242 246
85 176 83 14 61 66 24 36 194 100 310 317 304 307 318 317 319 324 328 327 324 323 324 320 316 308 299 284 275 256 240 232 228 219 219 213 209 207 211 212 217 225 224 228 241 244 247 256 256
131 123 135 44 7 89 37 52 159 348 334 332 328 319 308 320 332 322 331 323 326 327 322 318 314 308 301 291 271 261 237 235 229 228 228 214 214 212 212 214 219 224 227 234 242 248 258 262 259
90 95 349 38 348 121 254 55 31 303 334 329 336 334 339 325 336 336 330 331 325 325 326 318 313 308 301 289 278 262 251 227 210 211 231 225 218 216 213 215 220 223 228 234 241 246 254 255 254
61 59 40 343 3 11 55 284 357 340 353 344 338 345 342 337 335 339 339 334 332 329 330 321 314 308 303 295 284 267 254 214 222 219 222 224 217 216 213 212 217 222 224 230 237 244 251 255 252
21 127 7 326 84 326 47 277 134 357 4 344 346 346 338 334 341 346 340 333 338 335 330 328 318 309 303 295 289 275 252 223 220 216 209 226 229 220 219 214 216 215 223 228 235 242 248 253 258
203 104 253 247 304 345 270 265 161 359 359 346 332 331 342 341 340 340 340 337 341 345 332 328 322 312 306 294 285 277 252 223 218 217 209 219 218 217 220 227 217 214 220 230 231 237 243 248 259
125 136 203 252 257 310 229 288 333 2 350 336 320 359 349 345 347 340 342 350 337 338 336 335 329 322 314 297 283 273 238 210 219 216 220 218 218 222 223 229 220 215 223 223 226 234 237 242 253
105 115 283 293 287 222 325 292 199 198 267 265 297 318 341 347 355 352 355 341 342 340 339 334 340 327 317 297 283 274 243 209 212 218 215 224 210 212 226 229 225 218 220 219 225 228 231 241 245
173 152 234 243 320 263 324 326 297 261 275 270 307 302 313 331 340 349 349 345 345 346 340 340 348 338 322 290 282 267 249 227 212 211 212 214 210 212 217 223 231 227 222 229 228 228 229 236 243
241 184 186 297 31 290 21 286 289 257 284 266 306 323 336 346 341 344 342 348 350 346 352 357 358 343 330 295 254 238 214 201 211 204 209 210 203 211 213 212 221 235 225 232 238 234 234 237 244
169 151 184 233 149 309 336 84 268 334 278 277 304 322 340 337 341 340 348 347 347 353 353 360 359 344 346 19 210 225 185 184 174 167 136 152 186 203 202 209 215 220 230 227 225 190 163 156 111
147 123 54 61 97 349 247 113 278 199 211 256 271 323 340 340 346 348 353 354 358 4 4 2 356 354 358 38 68 118 161 112 107 105 98 96 100 124 136 162 166 142 128 119 120 114 111 94 90
115 71 337 352 9 227 182 85 248 230 224 218 255 311 338 339 345 350 354 351 351 358 2 1 2 2 8 36 64 69 84 89 89 90 99 95 91 91 90 103 101 100 98 98 93 95 91 94 94
160 166 154 229 269 291 155 237 251 208 189 223 220 276 346 341 350 348 354 354 357 360 6 10 12 10 14 27 52 64 70 80 79 83 86 84 91 94 98 99 96 98 99 94 95 95 92 88 90
168 187 153 109 47 1 216 278 279 159 212 217 236 264 309 331 349 345 355 11 4 9 15 23 21 27 33 33 49 60 69 73 75 85 88 92 90 97 103 102 105 105 93 99 105 101 90 86 79
180 155 73 10 40 296 278 272 243 214 225 217 219 227 254 286 334 3 358 10 16 20 25 37 37 42 46 52 62 70 78 84 87 89 88 93 95 98 98 99 99 98 95 98 96 90 89 86 78
145 207 69 119 151 193 292 262 213 218 204 200 206 206 208 229 254 355 359 14 19 28 35 40 48 50 57 65 72 79 80 81 84 88 90 93 97 101 99 99 95 92 91 87 86 84 82 80 77
225 208 168 140 215 227 154 270 237 236 215 187 189 197 198 205 218 250 25 14 27 27 34 44 54 57 60 72 75 77 80 81 83 87 93 94 95 96 97 96 93 89 89 89 86 82 76 71 65